Mehrabad Airport

Airport
ICAO code: 
OIII
IATA Code: 
THR
Summary
ICAO Region: 
MID
Territory: 
Location: 
Mehr Abad, Tehran
Serving: 
Tehran
Elevation: 
3962 ft
Coordinates: 
Aerial View: 
35° 41' 21" N, 51° 18' 49" E
Airport RE: 
Hot and High Operations
Metar
Observation
OIII 190030Z 00000KT CAVOK M03/M11 Q1017 A3004
Station
Tehran-Mehrabad
Date/Time
2022-01-19 00:30:00
Wind direction
Wind speed
00 kts
Lowest cloud amount
clouds and visibility OK
Temperature
-3°C
Dew point
-11°C
Humidity
53%
QNH
1017 hPa
Weather condition
n/a

Domestic airport serving Tehran, the capital of Iran.

Climatology

Cold Semi-arid climate (Köppen climate classification BSk).

Runways

Designator Length Width Surface Rops
9/27 474 40 CON No/No
11L/29R 3992 45 ASP Yes/Yes
11R/29L 4038 60 ASP Yes/Yes
Airport map: 
Aerial View: 

Accidents and Serious Incidents at or in the vicinity of OIII

SKYbrary Partners:

Safety knowledge contributed by: